[Date Prev][Date Next][Thread Prev][Thread Next] - [Date Index][Thread Index][Author Index]

2 Line ISS Keps 5-28



ISS
1 25544U 98067A   01148.13860218  .00032310  00000-0  38387-3 0   119
2 25544  51.5691 189.8635 0017793  94.1962   0.9134 15.60673394143949

----
Via the sarex mailing list at AMSAT.ORG courtesy of AMSAT-NA.
To unsubscribe, send "unsubscribe sarex" to Majordomo@amsat.org



AMSAT Top AMSAT Home